Location: WHS+Essen
(51.3947°N, 6.9794°E)
Time: 22:05:58
(UTC+02:00)

ISS - Pass Details

Date: 26 March 2019
Orbit: 408 x 410 km, 51.6° (Epoch: 22 April)

Event Time Altitude Azimuth Distance (km) Brightness Sun altitude
Rises 19:22:06 0° 231° (SW) 2,330 0.7 -5.1°
Reaches altitude 10° 19:24:15 10° 223° (SW) 1,471 -0.5 -5.4°
Maximum altitude 19:27:21 38° 153° (SSE) 636 -3.1 -5.9°
Drops below altitude 10° 19:30:27 10° 84° (E) 1,476 -1.6 -6.3°
Enters shadow 19:31:01 - 81° (E) 1,693 -1.3 -6.4°
